Weather History for Leonardtown, MD

Change the Weather History Date:

Thursday, February 7, 2013

  Actual Average (KNHK) Record (KNHK)
Temperature  
Mean Temperature 34 °F -  
Max Temperature 41 °F 36 °F 37 °F (2014)
Min Temperature 28 °F 23 °F 23 °F (2014)
Degree Days  
Heating Degree Days 30    
Moisture  
Dew Point 27 °F    
Average Humidity 75    
Maximum Humidity 93    
Minimum Humidity 57    
Precipitation  
Precipitation 0.00 in - - ()
Sea Level Pressure  
Sea Level Pressure 30.37 in    
Wind  
Wind Speed 2 mph (ENE)    
Max Wind Speed 8 mph    
Max Gust Speed -    
Visibility 10 miles    
Events      
Averages and records for this station are not official NWS values.
T = Trace of Precipitation, MM = Missing Value Source: NWS Daily Summary

Daily Weather History Graph

Daily Weather History Graph

Search for Another Location

Airport:

Trip Planner

Search our weather history database for the weather conditions in past years. The results will help you decide how hot, cold, wet, or windy it might be!

Date:

Astronomy

Feb. 07, 2013 Rise Set
Actual Time 7:05 AM EST 5:35 PM EST
Civil Twilight 6:37 AM EST 6:03 PM EST
Nautical Twilight 6:06 AM EST 6:34 PM EST
Astronomical Twilight 5:35 AM EST 7:05 PM EST
Moon 4:41 AM EST (2/7) 2:59 PM EST (2/7)
Length of Visible Light 11h 25m
Length of Day
10h 30m
Waning Crescent, 9% of the Moon is Illuminated
Feb 7
Waning Crescent
Feb 10
New
Feb 17
First Quarter
Feb 25
Full
Mar 4
Last Quarter

Hourly Weather History & Observations

Time (EST) Temp. Windchill Dew Point Humidity Pressure Visibility Wind Dir Wind Speed Gust Speed Precip Events Conditions
12:00 AM 30.2 °F - 24.8 °F 80% 30.37 in 10.0 mi Calm Calm - N/A   Clear
12:20 AM 30.2 °F - 23.0 °F 75% 30.37 in 10.0 mi Calm Calm - N/A   Clear
12:40 AM 30.2 °F - 23.0 °F 75% 30.38 in 10.0 mi Calm Calm - N/A   Clear
1:00 AM 30.2 °F - 23.0 °F 75% 30.39 in 10.0 mi Calm Calm - N/A   Clear
1:20 AM 30.2 °F - 24.8 °F 80% 30.39 in 10.0 mi Calm Calm - N/A   Clear
1:40 AM 28.4 °F - 23.0 °F 80% 30.42 in 10.0 mi Calm Calm - N/A   Clear
2:00 AM 28.4 °F - 24.8 °F 86% 30.41 in 10.0 mi Calm Calm - N/A   Clear
2:20 AM 28.4 °F - 23.0 °F 80% 30.41 in 10.0 mi Calm Calm - N/A   Clear
2:40 AM 28.4 °F - 23.0 °F 80% 30.41 in 10.0 mi Calm Calm - N/A   Clear
3:00 AM 28.4 °F - 23.0 °F 80% 30.42 in 10.0 mi Calm Calm - N/A   Clear
3:20 AM 28.4 °F - 23.0 °F 80% 30.41 in 10.0 mi Calm Calm - N/A   Clear
3:40 AM 28.4 °F - 23.0 °F 80% 30.40 in 10.0 mi Calm Calm - N/A   Clear
4:00 AM 28.4 °F - 23.0 °F 80% 30.39 in 10.0 mi Calm Calm - N/A   Clear
4:20 AM 28.4 °F - 23.0 °F 80% 30.39 in 10.0 mi Calm Calm - N/A   Clear
4:40 AM 28.4 °F - 23.0 °F 80% 30.39 in 10.0 mi Calm Calm - N/A   Clear
5:00 AM 28.4 °F - 24.8 °F 86% 30.39 in 10.0 mi Calm Calm - N/A   Clear
5:20 AM 28.4 °F - 24.8 °F 86% 30.40 in 10.0 mi Calm Calm - N/A   Clear
5:40 AM 28.4 °F - 24.8 °F 86% 30.41 in 10.0 mi Calm Calm - N/A   Clear
6:00 AM 28.4 °F - 24.8 °F 86% 30.42 in 10.0 mi Calm Calm - N/A   Scattered Clouds
6:20 AM 28.4 °F - 24.8 °F 86% 30.42 in 10.0 mi Calm Calm - N/A   Scattered Clouds
6:40 AM 28.4 °F - 26.6 °F 93% 30.42 in 10.0 mi Calm Calm - N/A   Clear
7:01 AM 30.2 °F - 26.6 °F 86% 30.42 in 10.0 mi Calm Calm - N/A   Clear
7:21 AM 30.2 °F - 26.6 °F 86% 30.44 in 10.0 mi Calm Calm - N/A   Clear
7:41 AM 32.0 °F - 24.8 °F 75% 30.44 in 10.0 mi Calm Calm - N/A   Clear
8:01 AM 32.0 °F - 24.8 °F 75% 30.45 in 10.0 mi Calm Calm - N/A   Clear
8:21 AM 32.0 °F - 26.6 °F 80% 30.45 in 10.0 mi Calm Calm - N/A   Clear
8:41 AM 32.0 °F - 26.6 °F 80% 30.45 in 10.0 mi Calm Calm - N/A   Clear
9:01 AM 32.0 °F - 26.6 °F 80% 30.45 in 10.0 mi Calm Calm - N/A   Clear
9:21 AM 33.8 °F - 26.6 °F 75% 30.46 in 10.0 mi Calm Calm - N/A   Clear
10:01 AM 33.8 °F - 26.6 °F 75% 30.47 in 10.0 mi Calm Calm - N/A   Clear
10:21 AM 35.6 °F 31.7 °F 26.6 °F 70% 30.47 in 10.0 mi East 4.6 mph - N/A   Mostly Cloudy
10:41 AM 35.6 °F 31.7 °F 26.6 °F 70% 30.46 in 10.0 mi ENE 4.6 mph - N/A   Mostly Cloudy
11:01 AM 35.6 °F 29.9 °F 26.6 °F 70% 30.45 in 10.0 mi East 6.9 mph - N/A   Scattered Clouds
11:21 AM 37.4 °F 31.4 °F 26.6 °F 65% 30.45 in 10.0 mi East 8.1 mph - N/A   Clear
11:41 AM 37.4 °F 32.8 °F 26.6 °F 65% 30.43 in 10.0 mi East 5.8 mph - N/A   Clear
12:01 PM 37.4 °F 31.4 °F 26.6 °F 65% 30.42 in 10.0 mi East 8.1 mph - N/A   Clear
12:21 PM 37.4 °F 31.4 °F 28.4 °F 70% 30.41 in 10.0 mi ESE 8.1 mph - N/A   Scattered Clouds
12:41 PM 37.4 °F 32.8 °F 26.6 °F 65% 30.39 in 10.0 mi ENE 5.8 mph - N/A   Mostly Cloudy
1:01 PM 37.4 °F 32.1 °F 26.6 °F 65% 30.38 in 10.0 mi ENE 6.9 mph - N/A   Mostly Cloudy
1:21 PM 37.4 °F 32.1 °F 26.6 °F 65% 30.38 in 10.0 mi East 6.9 mph - N/A   Scattered Clouds
1:41 PM 37.4 °F 31.4 °F 26.6 °F 65% 30.37 in 10.0 mi East 8.1 mph - N/A   Clear
2:01 PM 37.4 °F 32.1 °F 26.6 °F 65% 30.37 in 10.0 mi East 6.9 mph - N/A   Clear
2:21 PM 37.4 °F 31.4 °F 26.6 °F 65% 30.35 in 10.0 mi East 8.1 mph - N/A   Clear
2:41 PM 39.2 °F 35.9 °F 26.6 °F 61% 30.35 in 10.0 mi ENE 4.6 mph - N/A   Clear
3:01 PM 39.2 °F 35.0 °F 26.6 °F 61% 30.34 in 10.0 mi East 5.8 mph - N/A   Clear
3:22 PM 39.2 °F 35.0 °F 26.6 °F 61% 30.33 in 10.0 mi East 5.8 mph - N/A   Clear
3:42 PM 39.2 °F 34.2 °F 26.6 °F 61% 30.33 in 10.0 mi ESE 6.9 mph - N/A   Clear
4:02 PM 41.0 °F 37.1 °F 26.6 °F 57% 30.32 in 10.0 mi East 5.8 mph - N/A   Clear
4:22 PM 39.2 °F 34.2 °F 26.6 °F 61% 30.33 in 10.0 mi East 6.9 mph - N/A   Clear
4:42 PM 39.2 °F 35.0 °F 26.6 °F 61% 30.32 in 10.0 mi East 5.8 mph - N/A   Clear
5:02 PM 39.2 °F 35.0 °F 26.6 °F 61% 30.32 in 10.0 mi East 5.8 mph - N/A   Clear
5:22 PM 39.2 °F 37.0 °F 26.6 °F 61% 30.33 in 10.0 mi East 3.5 mph - N/A   Clear
5:42 PM 39.2 °F 37.0 °F 26.6 °F 61% 30.32 in 10.0 mi East 3.5 mph - N/A   Clear
6:02 PM 37.4 °F - 28.4 °F 70% 30.32 in 10.0 mi Calm Calm - N/A   Clear
6:22 PM 37.4 °F 34.9 °F 28.4 °F 70% 30.32 in 10.0 mi East 3.5 mph - N/A   Clear
6:42 PM 37.4 °F - 28.4 °F 70% 30.32 in 10.0 mi Calm Calm - N/A   Clear
7:02 PM 37.4 °F - 30.2 °F 75% 30.32 in 10.0 mi Calm Calm - N/A   Clear
7:22 PM 37.4 °F - 30.2 °F 75% 30.32 in 10.0 mi Calm Calm - N/A   Clear
8:02 PM 37.4 °F - 30.2 °F 75% 30.30 in 10.0 mi Calm Calm - N/A   Clear
8:22 PM 37.4 °F 34.9 °F 30.2 °F 75% 30.29 in 10.0 mi ENE 3.5 mph - N/A   Clear
8:42 PM 37.4 °F 33.8 °F 30.2 °F 75% 30.28 in 10.0 mi ENE 4.6 mph - N/A   Clear
9:02 PM 37.4 °F 34.9 °F 30.2 °F 75% 30.27 in 10.0 mi ENE 3.5 mph - N/A   Clear
9:22 PM 37.4 °F 32.8 °F 30.2 °F 75% 30.26 in 10.0 mi ENE 5.8 mph - N/A   Clear
9:42 PM 37.4 °F 34.9 °F 32.0 °F 81% 30.26 in 10.0 mi NE 3.5 mph - N/A   Clear
10:02 PM 35.6 °F 30.7 °F 32.0 °F 87% 30.24 in 10.0 mi NE 5.8 mph - N/A   Scattered Clouds
10:22 PM 35.6 °F 31.7 °F 32.0 °F 87% 30.24 in 10.0 mi NE 4.6 mph - N/A   Scattered Clouds
10:42 PM 35.6 °F 30.7 °F 32.0 °F 87% 30.22 in 10.0 mi NNE 5.8 mph - N/A   Mostly Cloudy
11:02 PM 35.6 °F 31.7 °F 32.0 °F 87% 30.22 in 10.0 mi NNE 4.6 mph - N/A   Overcast
11:22 PM 35.6 °F 32.8 °F 32.0 °F 87% 30.21 in 10.0 mi NE 3.5 mph - N/A   Overcast